Flag for Kiribati Weather past 2 weeks in Kiritimati, Christmas Island, Kiribati

Now
86 °F

Scattered showers. Scattered clouds.


Feels Like: 97 °F
Forecast: 81 / 85 °F
Wind: 7 mph from East

Location: Christmas / Cassidy

Current Time: Jul 2, 2015 at 11:16:01 AM

Latest Report: Jul 2, 2015 at 10:00 AM


Visibility: N/A

Pressure: 29.80 "Hg

Humidity: 75%

Dew point: 77 °F

Location of KiritimatiLocation

Historic Weather in Kiritimati — Graph

°F

Kiritimati temperature yesterday

Maximum temperature yesterday: 88 °F (at 11:00 AM)
Minimum temperature yesterday: 81 °F (at 2:00 AM)
Average temperature yesterday: 84 °F

Past Weeks' High & Low Weather Summary

 TemperatureHumidityPressure
High90 °F (Jun 29, 12:00 PM)100% (Jun 17, 11:00 PM)29.86 "Hg (Jun 17, 11:00 PM)
Low75 °F (Jun 18, 2:00 AM)62% (Jul 1, 11:00 AM)29.65 "Hg (Jun 21, 8:00 AM)
Average83 °F84%29.76 "Hg
* Reported Jun 17 10:00 AM — Jul 2 10:00 AM, Kiritimati, Weather by CustomWeather, © 2015

Note: Actual official high and low records may vary slightly from our data, if they occured in-between our weather recording intervals... More about our weather records

Advertising

Kiritimati weather history for previous 24 hours

 ConditionsComfort  
Time TempWeatherWind HumidityBarometerVisibility
10:00 AM
Thu, Jul 2
86 °FScattered showers. Scattered clouds.7 mph75%29.80 "HgN/A
8:00 AM82 °FPartly sunny.1 mph79%29.77 "HgN/A
7:00 AM81 °FPartly sunny.No wind89%29.77 "HgN/A
6:00 AM81 °FPartly sunny.3 mph89%29.74 "HgN/A
5:00 AM81 °FPartly sunny.3 mph84%29.74 "HgN/A
4:00 AM81 °FPassing clouds.1 mph84%29.74 "HgN/A
3:00 AM81 °FPartly cloudy.1 mph84%29.74 "HgN/A
2:00 AM81 °FPartly cloudy.1 mph84%29.77 "HgN/A
1:00 AM82 °FPartly cloudy.3 mph79%29.77 "HgN/A
12:00 AM82 °FPartly cloudy.3 mph79%29.80 "HgN/A
11:00 PM
Wed, Jul 1
82 °FPartly cloudy.2 mph89%29.80 "HgN/A
8:00 PM82 °FPassing clouds.2 mph79%29.80 "HgN/A
7:00 PM84 °FPassing clouds.2 mph79%29.77 "HgN/A
6:00 PM84 °FPassing clouds.5 mph74%29.77 "HgN/A
5:00 PM86 °FPassing clouds.5 mph70%29.74 "HgN/A
4:00 PM86 °FPartly sunny.9 mph66%29.74 "HgN/A
3:00 PM86 °FPartly sunny.7 mph66%29.74 "HgN/A
1:00 PM86 °FPartly sunny.14 mph70%29.80 "HgN/A
12:00 PM88 °FPartly sunny.12 mph66%29.80 "HgN/A
11:00 AM88 °FRain. Cloudy.N/A62%29.83 "HgN/A
Weather by CustomWeather, © 2015

See weather overviewHow to use our weather pages